{"data":{"norad_id":58491,"intl_designator":"2023-186U","name":"STARLINK-30953","alt_names":[],"object_type":"PAYLOAD","status":"ACTIVE","operator":null,"country":"US","launch_date":"2023-12-03","launch_site_code":"AFETR","launch_vehicle":null,"mission":null,"orbit_class":"UNKNOWN","rcs_meters":null,"size_class":null,"mass_kg":null,"dimensions":null,"purposes":["comms"],"wikipedia_slug":null,"has_3d_model":false,"image_url":null,"decayed_at":null,"tle_current":{"epoch":"2026-09-20T10:23:40.862976Z","epoch_age_seconds":152592,"freshness":"FRESH","line1":"1 58491U 23186U   26263.43311184 -.00002247  00000+0 -72193-4 0  9993","line2":"2 58491  42.9987 247.6998 0000651 302.0056  58.0732 15.27564741157674","mean_motion":15.27564741,"eccentricity":6.51e-5,"inclination_deg":42.9987,"raan_deg":247.6998,"arg_perigee_deg":302.0056,"mean_anomaly_deg":58.0732,"bstar":-7.2193e-5,"rev_number":15767,"period_min":94.267690353819,"perigee_km":482.64812116604,"apogee_km":483.54145354475,"semimajor_km":6861.2317873554,"source":"CELESTRAK","updated_at":"2026-09-21T09:00:33.905196Z"}}}